| time (UTC) | temp F | wind direction | speed MPH | gust MPH | rain 1hr in | rain 24hr in | rain mn in | humidity % | barometer mb |
| 20260504204554 | 80 | 197 | 10.0 | 23.0 | 0.00 | 0.00 | 0.00 | 47 | 1003.4 |
| 20260504203112 | 80 | 157 | 11.0 | 20.0 | 0.00 | 0.00 | 0.00 | 48 | 1003.5 |
| 20260504201551 | 80 | 226 | 13.0 | 25.0 | 0.00 | 0.00 | 0.00 | 48 | 1003.7 |
| 20260504200053 | 80 | 194 | 12.0 | 25.0 | 0.00 | 0.00 | 0.00 | 47 | 1003.9 |
| 20260504194603 | 80 | 172 | 13.0 | 24.0 | 0.00 | 0.00 | 0.00 | 46 | 1004.1 |
| 20260504193100 | 80 | 205 | 11.0 | 25.0 | 0.00 | 0.00 | 0.00 | 48 | 1004.2 |
| 20260504191553 | 79 | 205 | 14.0 | 26.0 | 0.00 | 0.00 | 0.00 | 46 | 1004.3 |
| 20260504190114 | 79 | 214 | 15.0 | 24.0 | 0.00 | 0.00 | 0.00 | 48 | 1004.4 |
| 20260504184605 | 78 | 164 | 12.0 | 25.0 | 0.00 | 0.00 | 0.00 | 48 | 1004.4 |
| 20260504183056 | 78 | 201 | 9.0 | 19.0 | 0.00 | 0.00 | 0.00 | 48 | 1004.3 |
| 20260504181550 | 77 | 155 | 8.0 | 19.0 | 0.00 | 0.00 | 0.00 | 51 | 1004.4 |
| 20260504180057 | 76 | 200 | 9.0 | 18.0 | 0.00 | 0.00 | 0.00 | 51 | 1004.8 |
| 20260504174607 | 76 | 150 | 8.0 | 15.0 | 0.00 | 0.00 | 0.00 | 52 | 1005.0 |
| 20260504173057 | 74 | 236 | 5.0 | 21.0 | 0.00 | 0.00 | 0.00 | 51 | 1004.7 |
| 20260504171558 | 75 | 159 | 7.0 | 21.0 | 0.00 | 0.00 | 0.00 | 51 | 1004.7 |
| 20260504140107 | 68 | 233 | 8.0 | 20.0 | 0.00 | 0.00 | 0.00 | 56 | 1005.9 |
| 20260504110117 | 62 | 212 | 5.0 | 12.0 | 0.00 | 0.00 | 0.00 | 62 | 1006.5 |
| 20260504090120 | 62 | 101 | 1.0 | 2.0 | 0.00 | 0.00 | 0.00 | 63 | 1007.7 |
| 20260504081556 | 61 | 0 | 0.0 | 0.0 | 0.00 | 0.00 | 0.00 | 67 | 1008.1 |
| 20260504044600 | 65 | 125 | 2.0 | 4.0 | 0.00 | 0.00 | 0.00 | 57 | 1008.8 |
| 20260504043054 | 65 | 129 | 2.0 | 4.0 | 0.00 | 0.00 | 0.00 | 57 | 1008.9 |
| 20260504041554 | 66 | 117 | 2.0 | 3.0 | 0.00 | 0.00 | 0.00 | 56 | 1009.0 |
| 20260504040106 | 67 | 118 | 2.0 | 3.0 | 0.00 | 0.00 | 0.00 | 54 | 1009.2 |
| 20260504034603 | 68 | 136 | 3.0 | 6.0 | 0.00 | 0.00 | 0.00 | 52 | 1009.4 |
| 20260504033104 | 68 | 143 | 3.0 | 5.0 | 0.00 | 0.00 | 0.00 | 53 | 1009.5 |
| 20260504031553 | 68 | 146 | 4.0 | 8.0 | 0.00 | 0.00 | 0.00 | 52 | 1009.6 |
| 20260504030056 | 69 | 177 | 4.0 | 8.0 | 0.00 | 0.00 | 0.00 | 51 | 1009.8 |
| 20260504024605 | 69 | 160 | 4.0 | 9.0 | 0.00 | 0.00 | 0.00 | 51 | 1009.6 |
| 20260504023053 | 70 | 203 | 4.0 | 8.0 | 0.00 | 0.00 | 0.00 | 50 | 1009.6 |
| 20260504021551 | 70 | 162 | 4.0 | 7.0 | 0.00 | 0.00 | 0.00 | 48 | 1009.7 |
| 20260504020052 | 71 | 203 | 4.0 | 7.0 | 0.00 | 0.00 | 0.00 | 47 | 1009.5 |
| 20260504014554 | 71 | 218 | 4.0 | 12.0 | 0.00 | 0.00 | 0.00 | 46 | 1009.3 |
| 20260504013053 | 71 | 224 | 4.0 | 7.0 | 0.00 | 0.00 | 0.00 | 46 | 1009.4 |
| 20260504011552 | 72 | 210 | 2.0 | 7.0 | 0.00 | 0.00 | 0.00 | 45 | 1009.3 |
| 20260504010056 | 73 | 199 | 2.0 | 8.0 | 0.00 | 0.00 | 0.00 | 44 | 1009.2 |
| 20260504004550 | 75 | 228 | 5.0 | 10.0 | 0.00 | 0.00 | 0.00 | 42 | 1009.2 |
| 20260504003053 | 76 | 195 | 5.0 | 9.0 | 0.00 | 0.00 | 0.00 | 41 | 1009.2 |
| 20260504001611 | 77 | 219 | 6.0 | 11.0 | 0.00 | 0.00 | 0.00 | 40 | 1009.3 |
| 20260504000059 | 78 | 178 | 6.0 | 12.0 | 0.00 | 0.00 | 0.00 | 41 | 1009.3 |
| 20260503234557 | 78 | 203 | 7.0 | 12.0 | 0.00 | 0.00 | 0.00 | 40 | 1009.5 |
| 20260503233057 | 79 | 269 | 7.0 | 16.0 | 0.00 | 0.00 | 0.00 | 39 | 1009.5 |
| 20260503231555 | 79 | 252 | 8.0 | 17.0 | 0.00 | 0.00 | 0.00 | 36 | 1009.5 |
| 20260503230101 | 79 | 238 | 9.0 | 18.0 | 0.00 | 0.00 | 0.00 | 37 | 1009.7 |
| 20260503224600 | 79 | 230 | 9.0 | 18.0 | 0.00 | 0.00 | 0.00 | 36 | 1009.7 |
| 20260503223059 | 79 | 234 | 11.0 | 18.0 | 0.00 | 0.00 | 0.00 | 35 | 1009.6 |
| 20260503221603 | 80 | 288 | 11.0 | 19.0 | 0.00 | 0.00 | 0.00 | 35 | 1009.7 |
| 20260503220110 | 80 | 240 | 10.0 | 19.0 | 0.00 | 0.00 | 0.00 | 38 | 1009.9 |
| 20260503214601 | 80 | 250 | 9.0 | 18.0 | 0.00 | 0.00 | 0.00 | 36 | 1010.0 |
| 20260503213055 | 80 | 174 | 8.0 | 20.0 | 0.00 | 0.00 | 0.00 | 39 | 1010.0 |
| 20260503211607 | 79 | 230 | 7.0 | 21.0 | 0.00 | 0.00 | 0.00 | 39 | 1010.1 |
| 20260503210057 | 79 | 231 | 9.0 | 24.0 | 0.00 | 0.00 | 0.00 | 36 | 1010.2 |